Hourly Data Report for October 10, 2014

All times are specified in Local Standard Time (LST). Add 1 hour to adjust for Daylight Saving Time where and when it is observed.

BAKER LAKE A
NUNAVUT

64°17'56.000" N
96°04'40.000" W
18.60 m
2300503
71926
YBK

Download Data

Hourly Data (October 2014)
Hourly Data Report for October 10, 2014
Temp Definition
°C
Dew Point Temp Definition
°C
Rel Hum Definition
%
Wind Dir Definition
10's deg

Wind Spd Definition
km/h
Visibility Definition
km
Stn Press Definition
kPa
Hmdx Definition


Wind Chill Definition


Weather Definition


TIME
00:00 Legend Double Dagger -4.7 -6.1 90 35 20 24.1 101.97   -11 Cloudy
01:00 Legend Double Dagger -5.3 -6.7 90 34 22 24.1 101.94   -12 LegendNANA
02:00 Legend Double Dagger -5.1 -6.6 89 1 19 24.1 101.92   -12 LegendNANA
03:00 Legend Double Dagger -4.0 -5.0 93 34 7 24.1 101.85   -7 Mostly Cloudy
04:00 Legend Double Dagger -3.1 -4.4 91 32 16 24.1 101.77   -8 LegendNANA
05:00 Legend Double Dagger -2.8 -3.9 92 31 17 24.1 101.69   -8 Snow
06:00 Legend Double Dagger -2.4 -3.5 92 29 16 24.1 101.62   -8 Snow
07:00 Legend Double Dagger -2.0 -3.1 92 29 19 24.1 101.52   -8 LegendNANA
08:00 Legend Double Dagger -1.4 -2.0 96 29 17 16.1 101.45   -7 Fog
09:00 Legend Double Dagger -0.4 -1.5 92 30 19 32.2 101.38   -6 Cloudy
10:00 Legend Double Dagger -0.1 -2.6 83 33 23 24.1 101.32   -6 LegendNANA
11:00 Legend Double Dagger -0.3 -2.1 88 33 22 16.1 101.25   -6 LegendNANA
12:00 Legend Double Dagger 0.1 -2.0 86 33 21 16.1 101.18     Snow Showers
13:00 Legend Double Dagger 0.2 -2.7 81 32 19 32.2 101.12     LegendNANA
14:00 Legend Double Dagger 0.5 -3.1 77 32 18 32.2 101.05     LegendNANA
15:00 Legend Double Dagger 0.1 -2.5 83 32 18 32.2 100.98     Mostly Cloudy
16:00 Legend Double Dagger -0.4 -2.6 85 33 18 32.2 100.93   -5 LegendNANA
17:00 Legend Double Dagger -0.7 -2.8 86 32 15 32.2 100.88   -5 LegendNANA
18:00 Legend Double Dagger -1.2 -2.9 88 33 17 32.2 100.83   -6 Mostly Cloudy
19:00 Legend Double Dagger -1.5 -3.1 89 33 16 24.1 100.77   -6 LegendNANA
20:00 Legend Double Dagger -1.5 -3.2 88 31 15 24.1 100.70   -6 LegendNANA
21:00 Legend Double Dagger -1.2 -3.4 85 32 14 24.1 100.65   -6 Cloudy
22:00 Legend Double Dagger -2.0 -4.5 83 36 26 24.1 100.60   -9 LegendNANA
23:00 Legend Double Dagger -2.6 -5.1 83 36 23 24.1 100.58   -9 LegendNANA

Notes on Data Quality.

Legend

  • E = Estimated
  • M = Missing
  • NA = Not Available
  • ‡ = Partner data that is not subject to review by the National Climate Archives
Date modified: